TimeMDT,TemperatureF,Dew PointF,Humidity,Sea Level PressureIn,VisibilityMPH,Wind Direction,Wind SpeedMPH,Gust SpeedMPH,PrecipitationIn,Events,Conditions,WindDirDegrees,DateUTC
12:53 AM,77.0,6.1,7,29.63,10.0,SSW,5.8,-,N/A,,Clear,210,2013-06-11 06:53:00
1:53 AM,80.1,1.9,5,29.63,10.0,SW,12.7,-,N/A,,Clear,230,2013-06-11 07:53:00
2:53 AM,80.1,9.0,7,29.65,10.0,SW,18.4,25.3,N/A,,Clear,230,2013-06-11 08:53:00
3:53 AM,73.9,10.9,9,29.67,10.0,SSW,6.9,-,N/A,,Clear,200,2013-06-11 09:53:00
4:53 AM,70.0,9.0,9,29.68,10.0,SW,9.2,-,N/A,,Clear,230,2013-06-11 10:53:00
5:53 AM,68.0,10.9,11,29.70,10.0,Variable,4.6,-,N/A,,Clear,0,2013-06-11 11:53:00
6:53 AM,72.0,12.9,10,29.72,10.0,SW,8.1,-,N/A,,Clear,230,2013-06-11 12:53:00
7:53 AM,80.1,16.0,9,29.72,10.0,SW,6.9,-,N/A,,Clear,220,2013-06-11 13:53:00
8:31 AM,82.4,19.4,10,29.95,10.0,WSW,15.0,26.5,N/A,,Clear,250,2013-06-11 14:31:00
8:53 AM,82.0,21.0,10,29.74,10.0,West,19.6,25.3,N/A,,Clear,270,2013-06-11 14:53:00
9:53 AM,84.0,23.0,11,29.75,10.0,WSW,16.1,23.0,N/A,,Clear,250,2013-06-11 15:53:00
10:53 AM,86.0,21.0,9,29.76,10.0,SW,16.1,24.2,N/A,,Clear,230,2013-06-11 16:53:00
11:53 AM,88.0,18.0,8,29.75,10.0,SW,18.4,29.9,N/A,,Clear,220,2013-06-11 17:53:00
12:53 PM,89.1,16.0,7,29.76,10.0,West,20.7,27.6,N/A,,Clear,260,2013-06-11 18:53:00
1:53 PM,91.0,16.0,6,29.74,10.0,SSW,19.6,24.2,N/A,,Clear,200,2013-06-11 19:53:00
2:53 PM,91.0,15.1,6,29.73,10.0,WSW,11.5,26.5,N/A,,Clear,240,2013-06-11 20:53:00
3:53 PM,93.0,16.0,6,29.73,10.0,West,17.3,25.3,N/A,,Clear,260,2013-06-11 21:53:00
4:53 PM,93.9,17.1,6,29.72,10.0,WSW,13.8,28.8,N/A,,Clear,240,2013-06-11 22:53:00
5:10 PM,93.2,17.6,6,29.93,10.0,WSW,13.8,23.0,N/A,,Clear,240,2013-06-11 23:10:00
5:53 PM,93.0,17.1,6,29.72,10.0,WSW,16.1,25.3,N/A,,Clear,240,2013-06-11 23:53:00
6:53 PM,93.0,17.1,6,29.70,10.0,West,18.4,-,N/A,,Clear,270,2013-06-12 00:53:00
7:53 PM,90.0,19.9,8,29.71,10.0,NW,13.8,-,N/A,,Clear,310,2013-06-12 01:53:00
8:53 PM,82.9,19.9,10,29.74,10.0,NW,6.9,-,N/A,,Clear,320,2013-06-12 02:53:00
9:53 PM,75.0,19.0,12,29.78,10.0,WSW,5.8,-,N/A,,Clear,240,2013-06-12 03:53:00
10:53 PM,77.0,19.0,11,29.79,10.0,West,6.9,-,N/A,,Clear,270,2013-06-12 04:53:00
11:53 PM,72.0,19.0,13,29.80,10.0,Calm,Calm,-,N/A,,Clear,0,2013-06-12 05:53:00